Regional Weather Roundup
Issued by NWS Midland/Odessa, TX

Skip options and go directly to product.
Home | Oldest Version | Previous Version | Current Version | All | Graphics & Text | Save Text | Print | Product List | Glossary On

Skip product version selection by date and time.   
059
ASUS44 KMAF 310002
RWRMAF
MIDLAND AREA WEATHER ROUNDUP
NATIONAL WEATHER SERVICE MIDLAND TX
700 PM CDT THU OCT 30 2014

...IN SOUTHWEST TEXAS AND SOUTHEAST NEW MEXICO...

CITY           SKY/WX    TMP DP  RH WIND       PRES   REMARKS
ALPINE         CLEAR     72  34  24 NE7       30.27R
ANDREWS        FAIR      71  43  36 NE8       30.16R
ARTESIA        NOT AVBL
BIG SPRING     CLEAR     79  57  47 N12       30.14R
CARLSBAD       CLEAR     74  41  30 NE8       30.16R
DRYDEN           N/A     81  58  45 E7        30.06R
FORT STOCKTON  CLEAR     76  33  21 NW7       30.12S
GUAD PASS      NOT AVBL
HOBBS          CLEAR     70  46  43 NE14G21   30.20R HAZE
MARFA          CLEAR     70  34  26 NE14      30.24R
MIDLAND AIRPK  CLEAR     78  37  23 N7        30.12S
MIDLAND INTL   CLEAR     76  37  24 N12       30.12R
ODESSA         CLEAR     76  36  23 NE9       30.14R
PECOS          CLEAR     75  44  33 NW7       30.11S
PRESIDIO       FAIR      85  52  32 CALM      30.06S
SEMINOLE       CLEAR     72  46  40 NE12      30.19R
SNYDER         CLEAR     72  57  60 NE8       30.16R
WINK           CLEAR     78  39  24 N12       30.11R
$$
...OTHER STATIONS IN TEXAS...

CITY           SKY/WX    TMP DP  RH WIND       PRES   REMARKS
ABILENE        PTCLDY    77  58  51 N10       30.10R
AMARILLO       CLEAR     59  32  36 NE10      30.28R
AUSTIN         PTCLDY    74  60  61 NE5       30.05R
BROWNSVILLE    CLEAR     78  69  73 E6        30.02R
CORPUS CHRISTI MOCLDY    78  70  76 E13       30.03R
DALLAS FTW     MOCLDY    70  59  68 NE9       30.08R
DEL RIO        CLEAR     81  62  52 SE5       30.01S
EL PASO        PTCLDY    79  36  21 N8        30.14F
HOUSTON INT    PTCLDY    67  55  65 NE3       30.06R
LUBBOCK        PTCLDY    66  38  35 NE8       30.21R
SAN ANGELO     CLEAR     78  56  46 NE6       30.05R
SAN ANTONIO    PTCLDY    78  60  53 SE6       30.04R
WACO           CLEAR     67  54  63 SE5       30.06S
WICHITA FALLS  NOT AVBL
$$
...OTHER LOCATIONS IN NEW MEXICO...

CITY           SKY/WX    TMP DP  RH WIND       PRES   REMARKS
ALAMAGORDO     NOT AVBL
ALBUQUERQUE    PTCLDY    70  18  13 SW3       30.26S
CANNON AFB     CLEAR     66  28  24 E14       30.28R
CLOVIS         CLEAR     63  28  27 NE9       30.31R
HOLLOMAN AFB   CLEAR     77  32  19 CALM      30.17S
ROSWELL        CLEAR     71  34  25 NE7       30.21R
RUIDOSO        CLEAR     57  27  30 SE8       30.39S
SANTA FE       CLEAR     65  15  14 SE10      30.31S
TRUTH OR CONSE CLEAR     74  20  13 N5        30.20S
TUCUMCARI      CLEAR     63  25  23 E7        30.28R
$$

USA.gov is the U.S. government's official web portal to all federal, state and local government web resources and services.